Location: Artiguemy
(43.1285°N, 0.2471°E)
Time: 14:30:14
(UTC+00:00)

Daily predictions for brighter satellites

Satellite Brightness Start Highest point End
(mag) Time Altitude Azimuth Time Altitude Azimuth Time Altitude Azimuth
Starlink Q 3.4 17:22:20 10° WSW 17:25:11 46° NNW 17:28:02 10° NE
Starlink P 3.5 17:23:41 10° WSW 17:26:31 45° NNW 17:29:23 10° NE
Starlink U 3.5 17:25:02 10° WSW 17:27:52 44° NNW 17:30:43 10° NE
Cosmos 1048 Rocket 4.0 17:23:55 10° NNW 17:29:01 59° ENE 17:34:03 10° SSE
CZ-4 R/B 2.5 17:26:03 10° ESE 17:29:13 22° ENE 17:32:25 10° NNE
Starlink B 3.6 17:26:24 10° WSW 17:29:14 43° NNW 17:32:04 10° NE
Alouette 2 Rocket 4.4 17:25:49 10° N 17:30:38 73° ENE 17:38:08 10° SSE
Cosmos 372 Rocket 4.2 17:27:12 10° SSW 17:32:18 77° WNW 17:37:30 10° NNE
Cosmos 1607 4.0 17:27:30 10° SSW 17:33:38 90° NW 17:39:50 10° NE
Starlink D 3.7 17:32:00 10° W 17:34:49 39° NNW 17:37:38 10° NE
SJ 16-02 3.9 17:32:29 10° WSW 17:35:31 18° WNW 17:38:33 10° NNW
Starlink S 3.8 17:33:26 10° W 17:36:15 38° NNW 17:39:04 10° NE
Starlink C 3.8 17:34:50 10° W 17:37:38 37° NNW 17:40:27 10° NE
Starlink E 3.9 17:36:17 10° W 17:39:04 36° NNW 17:41:53 10° NE
Starlink J 3.9 17:37:44 10° W 17:40:32 35° NNW 17:43:17 10° NE
Cosmos 468 4.5 17:35:41 10° NNW 17:40:56 84° ENE 17:46:11 10° SSE
Starlink V 3.9 17:39:10 10° W 17:41:57 34° NNW 17:44:39 10° NE
Starlink H 4.0 17:40:39 10° W 17:43:24 34° NNW 17:46:03 11° NE
Starlink F 4.0 17:42:07 10° W 17:44:52 33° NNW 17:47:28 11° NE
Starlink G 4.1 17:43:34 10° W 17:46:19 32° NNW 17:48:51 11° NE
Starlink L 4.1 17:45:03 10° W 17:47:46 31° NNW 17:50:15 12° NE
Starlink A 4.1 17:46:31 10° W 17:49:14 31° NNW 17:51:40 12° NE
ERBS 3.4 17:47:15 10° S 17:50:10 29° SE 17:52:11 16° ENE
Starlink R 4.2 17:48:00 10° W 17:50:43 30° NNW 17:53:05 12° NE
SKYMED 2 3.8 17:47:15 10° NNE 17:51:30 50° E 17:55:42 10° S
Starlink K 4.2 17:49:28 10° W 17:52:09 30° NNW 17:54:28 13° NE
Starlink M 4.2 17:50:53 10° W 17:53:35 29° NNW 17:55:49 13° NNE
SMAP 4.2 17:50:17 10° S 17:54:46 48° W 17:59:17 10° NNW
CZ-2D R/B 4.2 17:55:58 10° SE 17:59:08 25° ENE 18:02:19 10° NNE
USA 267 4.3 17:54:21 10° NE 18:00:12 36° NNW 18:06:03 10° W
ATLAS CENTAUR R/B 4.3 17:56:18 10° W 18:01:37 49° NNW 18:15:08 11° NE
Cosmos 1812 Rocket 3.5 17:59:09 10° N 18:03:38 83° E 18:08:07 10° S
Shenzhou-11 Module 4.1 18:02:39 10° S 18:03:54 12° SSE 18:04:36 12° SE
Ariane Rocket 4.2 18:00:21 10° ESE 18:04:01 21° ENE 18:07:43 10° NNE
USA 116 4.0 18:02:58 20° NE 18:04:28 28° E 18:07:12 10° SSE
Cosmos 494 Rocket 3.9 17:59:55 10° NNW 18:05:02 69° ENE 18:10:08 10° SSE
Cosmos 2237 Rocket 2.3 17:59:33 10° NNW 18:05:03 51° ENE 18:10:31 10° SE
Cosmos 2333 Rocket 2.9 18:00:01 10° NNW 18:05:38 58° WSW 18:11:10 10° S
Cosmos 1300 3.1 18:03:01 10° NNW 18:06:49 65° W 18:10:34 10° S
Cosmos 1241 Rocket 4.4 18:01:40 10° NNW 18:07:51 67° NE 18:14:04 10° SE
Cosmos 2154 Rocket 4.2 18:02:38 10° S 18:08:57 80° W 18:15:14 10° N
YAOGAN 1 2.7 18:06:08 10° SSE 18:10:17 49° ENE 18:14:29 10° N
H-2A R/B 4.1 18:15:09 10° NNE 18:15:09 10° NNE 18:15:10 10° NNE
Meteor 1-21 Rocket 4.2 18:08:57 10° S 18:14:24 60° E 18:19:59 10° NNE
Cosmos 1340 Rocket 3.0 18:12:23 10° NNW 18:16:21 73° W 18:20:18 10° S
CSL-04 Rocket 3.7 18:13:14 10° SSE 18:18:36 60° ENE 18:24:03 10° N
Cosmos 1242 Rocket 4.5 18:15:43 10° SW 18:18:48 29° WNW 18:21:58 10° N
Cosmos-2242 3.2 18:15:50 10° N 18:20:01 47° ENE 18:24:09 10° SSE
Cosmos 1626 3.8 18:19:00 10° SW 18:22:24 34° WNW 18:25:50 10° N
Cosmos 1455 2.7 18:19:22 10° N 18:22:54 35° ENE 18:26:24 10° SE
Cosmos 2251 Rocket 4.5 18:19:38 10° N 18:23:58 25° ENE 18:24:11 25° ENE
YAOGAN 6 3.6 18:20:30 10° S 18:24:05 49° W 18:27:41 10° NNW
SL-16 R/B 2.9 18:20:40 10° N 18:25:40 31° NE 18:27:14 27° E
ATLAS 5 CENTAUR R/B 4.1 18:24:19 10° WNW 18:26:49 14° NNW 18:29:28 10° N
USA 32 4.0 18:23:10 10° S 18:28:24 88° W 18:33:39 10° N
Cosmos 2219 3.1 18:23:29 10° SSW 18:29:06 89° NW 18:34:24 12° NNE
DELTA 2 R/B (1) 4.0 18:26:38 10° WSW 18:32:03 54° S 18:34:49 28° ESE
Cosmos 2082 4.2 18:27:47 10° S 18:32:54 38° ESE 18:34:40 30° ENE
Cosmos 1939 Rocket 2.6 18:32:39 10° SSE 18:36:30 69° ENE 18:40:26 10° N
Cosmos 2366 rocket 4.0 18:31:23 10° S 18:37:24 57° E 18:43:32 10° NNE
COSMO-SKYMED 1 3.5 18:35:23 10° N 18:39:35 48° WNW 18:43:45 10° SW
Cosmos 1953 Rocket 3.5 18:36:27 10° S 18:40:53 67° E 18:44:04 19° NNE
CZ-4C R/B 3.5 18:34:24 10° NW 18:41:42 64° WSW 18:49:54 10° SSE
BREEZE-M DEB (TANK) 2.6 18:41:54 10° WSW 18:43:51 56° WNW 18:43:51 56° WNW
Cosmos 2297 Rocket 2.1 18:38:46 10° SSW 18:44:25 85° ESE 18:48:25 20° NNE
Cosmos 1758 Rocket 3.9 18:41:55 10° SSW 18:46:10 62° W 18:50:27 10° N
Cosmos 1932 4.4 18:39:50 10° SSW 18:46:11 78° ESE 18:50:04 26° NE
Cosmos 1980 3.9 18:41:27 10° NNW 18:47:08 71° WSW 18:52:46 10° SSE
Cosmos 2227 Rocket 2.2 18:50:53 10° SSW 18:56:33 85° WNW 18:59:59 25° NNE
ATLAS CENTAUR R/B 3.7 18:54:25 10° N 18:54:50 12° N 18:54:50 12° N
NOAA 11 4.5 18:51:56 10° S 18:57:23 68° WSW 19:02:53 10° NNW
ISS -2.6 18:57:31 10° SW 18:59:47 37° SSW 18:59:47 37° SSW
Cosmos 1703 3.3 18:58:43 10° S 19:02:18 73° S 19:02:18 73° S
Cosmos 1727 Rocket 3.8 18:57:37 10° N 19:03:48 66° E 19:09:55 10° SSE
CZ-4 R/B 3.3 19:00:30 10° SSW 19:04:04 30° W 19:07:43 10° NNW
Meteor 2-12 Rocket 4.3 19:09:16 10° S 19:15:12 62° E 19:15:28 62° E
SL-8 R/B 3.7 19:12:26 10° SW 19:16:53 72° SSW 19:16:53 72° SSW
Cosmos 44 3.2 19:12:38 10° SSW 19:16:42 69° SSW 19:16:42 69° SSW
Atlas Centaur 2 4.0 19:18:08 10° SSW 19:21:21 18° SSE 19:21:21 18° SSE
ADEOS Rocket 3.2 19:17:47 10° NNE 19:24:19 85° WNW 19:31:34 10° SSW
Ariane Rocket 3.6 19:40:06 28° SSW 19:42:35 53° W 19:47:33 10° NNW
FALCON 9 R/B 4.1 19:33:22 10° SW 19:43:33 26° S 19:44:05 26° S
Cosmos 2237 Rocket 4.3 19:44:21 10° NW 19:48:43 24° WSW 19:53:04 10° SSW
H-2A R/B 4.3 19:55:45 14° NNW 19:55:45 14° NNW 19:56:28 10° NNW
SL-16 R/B 3.3 20:04:34 10° NW 20:09:13 41° W 20:09:13 41° W
ATLAS 5 CENTAUR R/B 4.1 20:20:18 10° NW 20:55:43 - SE 20:24:37 62° N
Cosmos 2297 Rocket 4.5 20:25:30 10° W 20:29:14 18° NW 20:30:17 17° NNW
